User: anonymous   Login
Location: Coleman
(45.0650°N, 88.0340°W)
Time: 12:11:23
(UTC-05:00)
Language:

Iridium 97 - Orbit

View from above orbital plane
View from above orbital plane
View from above satellite
View from above satellite

Ground track
Ground track

The orbit data is extracted from the following two-line orbital elements,

1 27450U 02031A   14296.31264247  .00000587  00000-0  20236-3 0  4233
2 27450 086.3988 003.4855 0003002 123.4553 236.6930 14.34221145651508
Epoch (UTC): 23 October 2014 07:30:12
Eccentricity: 0.0003002
inclination: 86.3988°
perigee height: 775 km
apogee height: 780 km
right ascension of ascending node: 3.4855°
argument of perigee: 123.4553°
revolutions per day: 14.34221145
mean anomaly at epoch: 236.6930°
orbit number at epoch: 65150

The dashed part of the orbit path shows where the satellite is in the earth's shadow,  

DLR